KC5TIL-3 Weather Reports


Display with metric or nautical units.
time (UTC)temp
F
wind
direction
speed
MPH
gust
MPH
rain 1hr
in
rain 24hr
in
rain mn
in
humidity
%
barometer
mb
20210127042020 46 13 11.0 15.0 0.00 0.08 0.00 55 1014.8
20210127041520 46 43 10.0 11.0 0.00 0.08 0.00 55 1014.8
20210127041022 46 327 6.0 10.0 0.00 0.08 0.00 58 1014.8
20210127040509 46 21 5.0 12.0 0.00 0.08 0.00 60 1014.8
20210127040019 46 26 6.0 12.0 0.00 0.08 0.00 60 1014.8
20210127035509 46 356 6.0 11.0 0.00 0.08 0.00 62 1014.8
20210127035011 46 27 4.0 12.0 0.00 0.08 0.00 65 1014.8
20210127034511 46 41 10.0 7.0 0.00 0.08 0.00 62 1013.8
20210127034011 46 329 4.0 8.0 0.00 0.08 0.00 65 1013.8
20210127033459 46 15 6.0 9.0 0.00 0.08 0.00 64 1013.8
20210127033006 46 13 6.0 12.0 0.00 0.08 0.00 62 1013.8
20210127032522 47 9 8.0 8.0 0.00 0.08 0.00 57 1013.8
20210127032013 48 347 6.0 10.0 0.00 0.08 0.00 52 1013.8
20210127031525 49 14 4.0 10.0 0.00 0.08 0.00 49 1013.8
20210127031021 49 25 7.0 16.0 0.00 0.08 0.00 46 1013.8
20210127030514 49 24 10.0 14.0 0.00 0.08 0.00 45 1013.8
20210127025510 49 30 5.0 11.0 0.00 0.08 0.00 45 1012.8
20210127025003 49 23 7.0 11.0 0.00 0.08 0.00 45 1012.8
20210127024511 50 27 7.0 9.0 0.00 0.08 0.00 45 1012.8
20210127024019 50 46 6.0 11.0 0.00 0.08 0.00 45 1012.8
20210127023512 50 32 8.0 10.0 0.00 0.08 0.00 44 1012.8
20210127023019 50 34 7.0 12.0 0.00 0.08 0.00 44 1012.8
20210127022512 50 37 10.0 10.0 0.00 0.08 0.00 44 1012.8
20210127022007 50 15 7.0 12.0 0.00 0.08 0.00 45 1012.8
20210127021514 50 14 8.0 9.0 0.00 0.08 0.00 45 1012.8
20210127020511 50 47 6.0 11.0 0.00 0.08 0.00 45 1012.8
20210127020000 50 22 7.0 11.0 0.00 0.08 0.00 45 1011.8
20210127015517 50 15 8.0 10.0 0.00 0.08 0.00 45 1011.8
20210127014955 50 66 7.0 11.0 0.00 0.08 0.00 45 1011.8
20210127014454 50 27 8.0 11.0 0.00 0.08 0.00 45 1011.8
20210127013959 50 23 9.0 11.0 0.00 0.08 0.00 44 1011.8
20210127013451 50 20 8.0 11.0 0.00 0.08 0.00 44 1011.8
20210127012452 51 22 7.0 10.0 0.00 0.08 0.00 43 1011.8
20210127011953 51 12 7.0 10.0 0.00 0.08 0.00 42 1011.8
20210127011452 51 19 6.0 9.0 0.00 0.08 0.00 42 1010.8
20210127010446 51 7 8.0 9.0 0.00 0.08 0.00 41 1010.8
20210127005948 52 11 7.0 10.0 0.00 0.08 0.00 40 1010.8
20210127004446 52 11 5.0 7.0 0.00 0.08 0.00 40 1010.8
20210127003940 52 43 5.0 7.0 0.00 0.08 0.00 40 1010.8
20210127003437 52 26 4.0 7.0 0.00 0.08 0.00 39 1010.8
20210127002945 52 38 4.0 7.0 0.00 0.08 0.00 39 1010.8
20210127002441 52 38 5.0 7.0 0.00 0.08 0.00 39 1010.8
20210127001439 53 12 4.0 6.0 0.00 0.08 0.00 38 1010.8
20210127000921 53 43 4.0 7.0 0.00 0.08 0.00 38 1010.8
20210127000426 53 326 4.0 4.0 0.00 0.08 0.00 37 1010.8
20210126235922 54 325 0.0 4.0 0.00 0.08 0.00 37 1010.8
20210126235422 54 325 0.0 4.0 0.00 0.08 0.00 37 1010.8
20210126234918 54 325 3.0 5.0 0.00 0.08 0.00 37 1010.8
20210126234416 55 325 0.0 4.0 0.00 0.08 0.00 36 1010.8
20210126233921 55 325 3.0 6.0 0.00 0.08 0.00 36 1010.8
20210126233415 55 112 4.0 5.0 0.00 0.08 0.00 36 1010.8
20210126232917 55 50 3.0 4.0 0.00 0.08 0.00 36 1009.8
20210126231418 56 215 0.0 7.0 0.00 0.08 0.00 36 1009.8
20210126230918 56 205 4.0 7.0 0.00 0.08 0.00 36 1009.8
20210126230416 55 310 4.0 8.0 0.00 0.08 0.00 36 1009.8
20210126225918 55 30 5.0 7.0 0.00 0.08 0.00 36 1009.8
20210126225421 56 73 3.0 8.0 0.00 0.08 0.00 35 1009.8
20210126224915 56 288 3.0 7.0 0.00 0.08 0.00 35 1009.8
20210126224412 57 143 4.0 6.0 0.00 0.08 0.00 35 1009.8
20210126223355 56 336 4.0 6.0 0.00 0.08 0.00 35 1009.8
20210126222856 57 234 4.0 7.0 0.00 0.08 0.00 35 1009.8
20210126222356 56 71 4.0 7.0 0.00 0.08 0.00 35 1009.8
20210126221853 56 47 5.0 7.0 0.00 0.08 0.00 35 1009.8
20210126221355 56 114 4.0 7.0 0.00 0.08 0.00 35 1009.8
20210126220858 56 30 5.0 7.0 0.00 0.08 0.00 35 1009.8
20210126220351 56 166 4.0 8.0 0.00 0.08 0.00 35 1009.8
20210126215853 56 125 5.0 8.0 0.00 0.08 0.00 35 1009.8
20210126215352 56 35 4.0 6.0 0.00 0.08 0.00 35 1009.8
20210126214852 57 117 4.0 7.0 0.00 0.08 0.00 35 1009.8
20210126214401 57 243 4.0 7.0 0.00 0.08 0.00 35 1009.8
20210126213848 56 88 4.0 8.0 0.00 0.08 0.00 35 1009.8
20210126213341 56 67 5.0 9.0 0.00 0.08 0.00 35 1009.8
20210126212846 56 21 6.0 7.0 0.00 0.08 0.00 36 1009.8
20210126212343 57 283 3.0 7.0 0.00 0.08 0.00 35 1009.8
20210126211841 56 216 5.0 8.0 0.00 0.08 0.00 35 1009.8
20210126211342 56 317 6.0 8.0 0.00 0.08 0.00 35 1009.8
20210126210844 55 12 6.0 7.0 0.00 0.08 0.00 36 1009.8
20210126210342 55 56 4.0 8.0 0.00 0.08 0.00 36 1009.8
20210126205844 55 76 4.0 7.0 0.00 0.08 0.00 36 1009.8
20210126205348 54 14 5.0 7.0 0.00 0.08 0.00 37 1009.8
20210126204433 55 336 4.0 10.0 0.00 0.08 0.00 36 1009.8
20210126203849 54 351 6.0 8.0 0.00 0.08 0.00 37 1009.8
20210126202838 54 356 9.0 10.0 0.00 0.08 0.00 37 1010.8
20210126202337 53 356 7.0 9.0 0.00 0.08 0.00 37 1010.8
20210126201848 54 59 4.0 7.0 0.00 0.08 0.00 37 1010.8
20210126201336 53 271 4.0 8.0 0.00 0.08 0.00 37 1010.8
20210126200823 53 341 5.0 10.0 0.00 0.08 0.00 37 1010.8
20210126200316 53 25 6.0 7.0 0.00 0.08 0.00 37 1010.8
20210126195813 53 14 3.0 10.0 0.00 0.08 0.00 37 1010.8
20210126195313 52 27 7.0 11.0 0.00 0.08 0.00 38 1010.8
20210126194807 53 351 5.0 7.0 0.00 0.08 0.00 37 1010.8
20210126194308 52 34 4.0 9.0 0.00 0.08 0.00 37 1010.8
20210126193802 53 26 6.0 9.0 0.00 0.08 0.00 37 1010.8
20210126192305 52 146 4.0 7.0 0.00 0.08 0.00 38 1011.8
20210126191806 52 229 3.0 9.0 0.00 0.08 0.00 38 1011.8
20210126191305 51 93 3.0 8.0 0.00 0.08 0.00 38 1011.8
20210126190801 51 115 6.0 9.0 0.00 0.08 0.00 39 1011.8
20210126190258 50 307 5.0 10.0 0.00 0.08 0.00 39 1011.8
20210126185759 50 26 6.0 9.0 0.00 0.08 0.00 39 1011.8
20210126185308 51 291 3.0 9.0 0.00 0.08 0.00 39 1011.8
20210126184756 49 23 6.0 9.0 0.00 0.08 0.00 40 1011.8
20210126184259 49 21 8.0 11.0 0.00 0.08 0.00 40 1011.8
20210126183754 49 260 5.0 12.0 0.00 0.08 0.00 41 1011.8
20210126183244 49 26 7.0 11.0 0.00 0.08 0.00 41 1011.8
20210126182743 48 68 6.0 11.0 0.00 0.08 0.00 41 1012.8
20210126182246 49 13 7.0 10.0 0.00 0.08 0.00 41 1012.8
20210126181743 49 234 6.0 11.0 0.00 0.08 0.00 42 1012.8
20210126181245 48 16 7.0 11.0 0.00 0.08 0.00 42 1012.8
20210126180751 47 2 8.0 11.0 0.00 0.08 0.00 43 1012.8
20210126180246 48 279 5.0 9.0 0.00 0.08 0.00 43 1012.8
20210126175247 46 317 7.0 9.0 0.00 0.08 0.00 43 1012.8
20210126174750 46 53 5.0 10.0 0.00 0.08 0.00 44 1012.8
20210126174246 47 263 5.0 11.0 0.00 0.08 0.00 45 1012.8
20210126173746 45 37 10.0 11.0 0.00 0.08 0.00 46 1012.8
20210126173243 46 288 4.0 11.0 0.00 0.08 0.00 46 1012.8
20210126171742 45 0 5.0 12.0 0.00 0.08 0.00 46 1013.8
20210126171243 44 22 12.0 13.0 0.00 0.08 0.00 47 1013.8
20210126170748 44 309 7.0 12.0 0.00 0.08 0.00 48 1013.8
20210126170241 44 351 10.0 13.0 0.00 0.08 0.00 48 1013.8
20210126165742 43 15 10.0 11.0 0.00 0.08 0.00 47 1013.8
20210126164749 42 9 7.0 12.0 0.00 0.08 0.00 48 1013.8
20210126162241 42 96 7.0 11.0 0.00 0.08 0.00 51 1013.8
20210126161737 42 324 10.0 13.0 0.00 0.08 0.00 51 1013.8
20210126161239 42 228 6.0 12.0 0.00 0.08 0.00 51 1013.8
20210126160733 42 92 6.0 11.0 0.00 0.08 0.00 52 1013.8
20210126155729 41 165 7.0 10.0 0.00 0.08 0.00 54 1012.8
20210126154723 41 37 8.0 12.0 0.00 0.08 0.00 56 1012.8
20210126154225 41 335 7.0 9.0 0.00 0.08 0.00 57 1012.8
20210126153726 40 36 7.0 14.0 0.00 0.08 0.00 60 1012.8
20210126153225 40 16 9.0 12.0 0.00 0.08 0.00 60 1012.8
20210126151721 40 30 7.0 12.0 0.00 0.08 0.00 60 1012.8
20210126145725 39 17 9.0 13.0 0.00 0.08 0.00 68 1012.8
20210126144223 38 27 11.0 14.0 0.00 0.08 0.00 70 1012.8
20210126143716 38 9 9.0 14.0 0.00 0.08 0.00 72 1012.8
20210126143214 38 26 8.0 14.0 0.00 0.08 0.00 74 1012.8
20210126143020 38 27 8.0 11.0 0.00 0.08 0.00 74 1012.8
20210126142713 38 27 8.0 11.0 0.00 0.08 0.00 74 1012.8
20210126142216 38 28 9.0 11.0 0.00 0.08 0.00 76 1012.8
20210126141213 38 12 7.0 10.0 0.00 0.08 0.00 78 1012.8
20210126140712 38 8 8.0 10.0 0.00 0.08 0.00 78 1012.8
20210126135712 38 25 6.0 9.0 0.00 0.08 0.00 79 1012.8
20210126134704 38 33 6.0 10.0 0.00 0.08 0.00 80 1012.8
20210126134206 38 5 7.0 10.0 0.00 0.08 0.00 80 1012.8
20210126133713 38 351 7.0 10.0 0.00 0.08 0.00 81 1012.8
20210126132702 38 26 7.0 9.0 0.00 0.08 0.00 82 1011.8
20210126132201 38 29 7.0 9.0 0.00 0.08 0.00 82 1011.8
20210126131657 38 0 5.0 9.0 0.00 0.08 0.00 82 1011.8
20210126131156 38 17 6.0 8.0 0.00 0.08 0.00 82 1011.8
20210126130656 38 15 7.0 9.0 0.00 0.08 0.00 82 1011.8
20210126130202 38 14 6.0 9.0 0.00 0.08 0.00 82 1011.8
20210126125656 39 9 7.0 9.0 0.00 0.08 0.00 82 1011.8
20210126125156 39 20 6.0 7.0 0.00 0.08 0.00 82 1011.8
20210126124650 39 2 6.0 8.0 0.00 0.08 0.00 82 1011.8
20210126124153 39 22 7.0 9.0 0.00 0.08 0.00 82 1011.8
20210126123649 39 26 6.0 9.0 0.00 0.08 0.00 82 1011.8
20210126122650 39 22 7.0 10.0 0.00 0.08 0.00 82 1011.8
20210126122154 39 23 8.0 10.0 0.00 0.08 0.00 82 1011.8
20210126121644 39 44 5.0 7.0 0.00 0.08 0.00 82 1011.8
20210126121145 39 20 5.0 10.0 0.00 0.08 0.00 82 1010.8
20210126120651 39 32 6.0 10.0 0.00 0.08 0.00 81 1010.8
20210126115643 40 356 7.0 10.0 0.00 0.08 0.00 81 1010.8
20210126114640 40 18 5.0 11.0 0.00 0.08 0.00 80 1010.8
20210126114138 40 26 7.0 8.0 0.00 0.08 0.00 81 1010.8
20210126113633 40 10 5.0 10.0 0.00 0.08 0.00 81 1010.8
20210126112632 40 312 4.0 8.0 0.00 0.08 0.00 80 1010.8
20210126112132 40 271 6.0 9.0 0.00 0.08 0.00 79 1010.8
20210126111631 40 305 6.0 11.0 0.00 0.08 0.00 79 1010.8
20210126111131 40 351 5.0 10.0 0.00 0.08 0.00 78 1010.8
20210126110652 41 42 7.0 8.0 0.00 0.08 0.00 79 1010.8
20210126110134 41 351 4.0 8.0 0.00 0.08 0.00 79 1010.8
20210126105632 41 356 3.0 7.0 0.00 0.08 0.00 80 1009.8
20210126105136 41 4 3.0 8.0 0.00 0.08 0.00 80 1009.8
20210126104636 41 2 4.0 8.0 0.00 0.08 0.00 80 1009.8
20210126104132 42 21 7.0 9.0 0.00 0.08 0.00 80 1009.8
20210126103635 42 11 7.0 6.0 0.00 0.08 0.00 79 1009.8
20210126103131 42 28 5.0 7.0 0.00 0.08 0.00 78 1009.8
20210126102630 42 13 5.0 7.0 0.00 0.08 0.00 78 1009.8
20210126102131 42 12 6.0 7.0 0.00 0.08 0.00 77 1009.8
20210126101630 42 351 5.0 7.0 0.00 0.08 0.00 77 1009.8
20210126101128 43 334 0.0 8.0 0.00 0.08 0.00 76 1009.8
20210126100633 43 29 4.0 8.0 0.00 0.08 0.00 75 1009.8
20210126100154 43 318 4.0 7.0 0.00 0.08 0.00 74 1009.8
20210126095612 43 13 3.0 8.0 0.00 0.08 0.00 72 1009.8
20210126095115 44 351 5.0 9.0 0.00 0.08 0.00 71 1009.8
20210126094611 44 0 4.0 10.0 0.00 0.08 0.00 69 1009.8
20210126094110 44 328 5.0 7.0 0.00 0.08 0.00 68 1008.8
20210126093624 44 306 4.0 6.0 0.00 0.08 0.00 65 1008.8
20210126093110 44 324 4.0 5.0 0.00 0.08 0.00 60 1008.8
20210126092612 44 273 3.0 7.0 0.00 0.08 0.00 57 1008.8
20210126092117 45 321 4.0 8.0 0.00 0.08 0.00 54 1008.8
20210126091112 47 291 6.0 6.0 0.00 0.08 0.00 48 1008.8
20210126090615 47 289 5.0 7.0 0.00 0.08 0.00 47 1008.8
20210126090113 48 296 6.0 5.0 0.00 0.08 0.00 46 1008.8
20210126085612 48 293 4.0 5.0 0.00 0.08 0.00 45 1008.8
20210126084612 49 299 3.0 5.0 0.00 0.08 0.00 43 1008.8
20210126084104 49 301 4.0 4.0 0.00 0.08 0.00 41 1007.8
20210126083639 49 297 0.0 0.0 0.00 0.08 0.00 43 1007.8
20210126083119 48 297 0.0 0.0 0.00 0.08 0.00 45 1007.8
20210126082607 48 297 0.0 0.0 0.00 0.08 0.00 46 1007.8
20210126082108 48 297 0.0 0.0 0.00 0.08 0.00 47 1007.8
20210126081606 48 297 0.0 0.0 0.00 0.08 0.00 46 1007.8
20210126081107 48 297 0.0 3.0 0.00 0.08 0.00 46 1006.8
20210126080609 48 297 0.0 4.0 0.00 0.08 0.00 48 1006.8
20210126080113 49 297 0.0 8.0 0.00 0.08 0.00 42 1006.8
20210126075608 50 297 4.0 7.0 0.00 0.08 0.00 40 1006.8
20210126075102 50 302 4.0 7.0 0.00 0.08 0.00 39 1006.8
20210126074559 51 351 4.0 5.0 0.00 0.08 0.00 38 1006.8
20210126074105 50 216 4.0 5.0 0.00 0.08 0.00 40 1006.8
20210126073608 50 212 4.0 7.0 0.00 0.08 0.00 40 1006.8
20210126073104 51 212 4.0 4.0 0.00 0.08 0.00 39 1006.8
20210126072603 50 210 3.0 6.0 0.00 0.08 0.00 39 1006.8
20210126072042 50 227 4.0 5.0 0.00 0.08 0.00 40 1006.8
20210126071933 50 228 0.0 5.0 0.00 0.08 0.00 40 1006.8
20210126071532 50 228 0.0 5.0 0.00 0.08 0.00 40 1006.8
20210126071032 50 223 3.0 4.0 0.00 0.08 0.00 41 1006.8
20210126070534 50 253 0.0 4.0 0.00 0.08 0.00 41 1006.8
20210126070032 50 239 0.0 6.0 0.00 0.08 0.00 40 1006.8
20210126065544 50 266 3.0 4.0 0.00 0.08 0.00 39 1006.8
20210126065032 51 232 3.0 5.0 0.00 0.08 0.00 39 1006.8
20210126064546 51 228 0.0 6.0 0.00 0.08 0.00 38 1006.8
20210126064030 52 229 3.0 6.0 0.00 0.08 0.00 38 1006.8
20210126063532 52 229 4.0 7.0 0.00 0.08 0.00 38 1006.8
20210126063036 52 226 4.0 6.0 0.00 0.08 0.00 38 1006.8
20210126062531 51 219 5.0 6.0 0.00 0.08 0.00 39 1006.8
20210126062046 51 198 4.0 5.0 0.00 0.08 0.00 39 1006.8
20210126061529 51 189 5.0 6.0 0.00 0.08 0.08 40 1006.8
20210126061034 50 208 4.0 7.0 0.00 0.08 0.08 41 1006.8
20210126060546 50 200 4.0 6.0 0.00 0.08 0.08 42 1006.8
20210126060033 51 219 4.0 4.0 0.00 0.08 0.08 42 1006.8
20210126055519 50 232 4.0 4.0 0.00 0.08 0.08 43 1006.8
20210126055022 50 233 3.0 4.0 0.00 0.08 0.08 43 1006.8
20210126054523 51 233 4.0 6.0 0.00 0.08 0.08 42 1006.8
20210126053516 50 234 5.0 6.0 0.00 0.08 0.08 42 1006.8
20210126053022 51 236 5.0 6.0 0.00 0.08 0.08 41 1006.8
20210126052519 51 237 5.0 5.0 0.00 0.08 0.08 41 1006.8
20210126052020 51 261 0.0 4.0 0.00 0.08 0.08 42 1006.8
20210126051525 51 256 4.0 4.0 0.00 0.08 0.08 41 1006.8
20210126050528 51 222 0.0 4.0 0.00 0.08 0.08 43 1006.8
20210126050026 51 222 4.0 5.0 0.00 0.08 0.08 42 1006.8
20210126045022 51 222 4.0 5.0 0.00 0.08 0.08 42 1007.8
20210126044522 51 227 4.0 4.0 0.00 0.08 0.08 42 1007.8
20210126044018 51 226 3.0 5.0 0.00 0.08 0.08 42 1006.8
20210126043516 51 226 0.0 4.0 0.00 0.08 0.08 42 1006.8
20210126043022 51 226 3.0 4.0 0.00 0.08 0.08 41 1006.8